View from above orbital plane
|
View from above satellite
|
Ground track
|
The orbit data is extracted from the following two-line orbital elements,
1 14453U 83109B 21018.85071340 .00000013 00000-0 33866-6 0 9994
2 14453 81.1647 226.6915 0104153 228.5072 130.7133 14.24742225934295
Epoch (UTC): | 18 January 2021 20:25:01 |
Eccentricity: | 0.0104153 |
inclination: | 81.1647° |
perigee height: | 734 km |
apogee height: | 884 km |
right ascension of ascending node: | 226.6915° |
argument of perigee: | 228.5072° |
revolutions per day: | 14.24742225 |
mean anomaly at epoch: | 130.7133° |
orbit number at epoch: | 93429 |
The dashed part of the orbit path shows where the satellite is in the earth's shadow,
|
|